Погода в Рошале

Россия / Московская область     55°39′47″N   39°51′45″E
темп.,
°C
ветер,
м/с
пор.,
м/с
влажн.,
%
обл.,
%
осадки,
мм/ч
давл.,
гПа
погр.,
м
4 августа, ср
ср400:00+15з24800 0.0 101271
03:00+13зсз22770 0.0 101323
06:00+14з147863 0.0 1014109
09:00+19сз235993 0.0 1014525
12:00+23зсз344322 0.0 10151941
15:00+20сз3653100 0.0 1015266
18:00+22ссз024669 0.0 1016850
21:00+15юз117296 0.0 101711
5 августа, чт
чт500:00+14зюз117498 0.0 101711
03:00+13сз007988 0.0 101811
06:00+14ю117535 0.0 101835
09:00+20ю235324 0.0 1018516
12:00+25ююз2337100 0.0 10172218
15:00+24ююз2443100 0.0 10161460
18:00+17зсз2481100 0.3 101682
21:00+17вюв1179100 0.4 101527
6 августа, пт
пт600:00+16вюв3988100 0.4 1014220
03:00+16вюв31082100 0.4 1013329
06:00+15вюв2588100 0.3 1012130
09:00+16ю2780100 0.3 1012278
12:00+19ююв2370100 0.2 1013287
15:00+16всв2493100 1.8 1013113
18:00+17св4886100 0.1 1012264
21:00+17всв4128486 0.1 1011311
7 августа, сб
сб700:00+16всв4986100 0.0 1011229
03:00+15всв3589100 0.1 1010115
06:00+16св239271 1.3 1011102
09:00+20юв3578100 3.5 1011358
12:00+25ююв356087 2.0 1011628
15:00+25ю2663100 2.1 1012340
18:00+27в125978 0.0 1012104
21:00+22вюв267290 0.0 1012132
8 августа, вс
вс800:00+20юв2771100 0.1 1012133
03:00+18ююв3127064 0.1 1012227
06:00+19юв31063100 0.0 1012215
09:00+25ююв474197 0.0 1012369
12:00+30ююв4628100 0.0 1012976
15:00+31ююз4728100 0.1 10121643
18:00+26ю375096 0.0 1014327
21:00+21вюв1166100 0.1 101536